When you browse on this site, cookies collect data to enhance your experience and personalize the content and advertising you see.
Visit our Privacy Policy to learn more. By continuing to use the site, you agree to this use of cookies and data.
  • In Slovakia
  • List of Countries
  • For 7 days
  • Water Temperature
  • Weather Map
  • Weather Widgets
  • user-avatar
    Login

    Hourly Weather Quito

    Today, 26 January, Sunday

    Time Temperature Precipitation Wind Pressure Humidity
    00:00 +17°C° 0.9 mm 0 mps 622 mmHg 93%
    01:00 +19°C° 0 mm 1 mps 622 mmHg 95%
    02:00 +19°C° 0.5 mm 1 mps 621 mmHg 96%
    03:00 +17°C° 0.5 mm 0 mps 621 mmHg 96%
    04:00 +17°C° 0.5 mm 0 mps 621 mmHg 96%
    05:00 +17°C° 0.2 mm 0 mps 621 mmHg 96%
    06:00 +19°C° 0.2 mm 1 mps 622 mmHg 95%
    07:00 +19°C° 0 mm 1 mps 623 mmHg 96%
    08:00 +21°C° 0 mm 1 mps 623 mmHg 87%
    09:00 +23°C° 0 mm 1 mps 624 mmHg 77%
    10:00 +24°C° 0 mm 2 mps 624 mmHg 68%
    11:00 +25°C° 0.3 mm 2 mps 624 mmHg 67%
    12:00 +26°C° 0.3 mm 2 mps 623 mmHg 66%
    13:00 +25°C° 0 mm 2 mps 623 mmHg 71%
    14:00 +25°C° 1.2 mm 2 mps 622 mmHg 73%
    15:00 +24°C° 1.2 mm 2 mps 622 mmHg 76%
    16:00 +24°C° 1.2 mm 2 mps 621 mmHg 79%
    17:00 +23°C° 1.9 mm 2 mps 621 mmHg 83%
    18:00 +20°C° 1.9 mm 2 mps 621 mmHg 87%
    19:00 +20°C° 1.9 mm 1 mps 621 mmHg 91%
    20:00 +20°C° 0.7 mm 1 mps 622 mmHg 92%
    21:00 +19°C° 0.7 mm 1 mps 622 mmHg 93%
    22:00 +19°C° 0.7 mm 1 mps 623 mmHg 93%
    23:00 +19°C° 0.9 mm 1 mps 622 mmHg 95%

    Tomorrow, 27 January, Monday

    Time Temperature Precipitation Wind Pressure Humidity
    00:00 +18°C° 0.9 mm 1 mps 622 mmHg 96%
    01:00 +18°C° 0.9 mm 1 mps 622 mmHg 97%
    02:00 +18°C° 0.8 mm 1 mps 622 mmHg 97%
    03:00 +18°C° 0.8 mm 1 mps 622 mmHg 97%
    04:00 +18°C° 0.8 mm 1 mps 621 mmHg 97%
    05:00 +18°C° 0.4 mm 1 mps 622 mmHg 96%
    06:00 +19°C° 0.4 mm 1 mps 622 mmHg 95%
    07:00 +19°C° 0.4 mm 1 mps 623 mmHg 95%
    08:00 +19°C° 0.9 mm 0 mps 624 mmHg 89%
    09:00 +21°C° 0.9 mm 0 mps 624 mmHg 83%
    10:00 +23°C° 0.9 mm 0 mps 625 mmHg 77%
    11:00 +25°C° 1.2 mm 1 mps 624 mmHg 75%
    12:00 +25°C° 1.2 mm 2 mps 624 mmHg 73%
    13:00 +25°C° 1.2 mm 2 mps 623 mmHg 71%
    14:00 +25°C° 0.3 mm 2 mps 623 mmHg 71%
    15:00 +24°C° 0.3 mm 2 mps 622 mmHg 70%
    16:00 +24°C° 0.3 mm 2 mps 622 mmHg 69%
    17:00 +23°C° 0.3 mm 2 mps 622 mmHg 76%
    18:00 +21°C° 0.3 mm 1 mps 622 mmHg 84%
    19:00 +19°C° 0.3 mm 1 mps 621 mmHg 91%
    20:00 +19°C° 0.1 mm 1 mps 622 mmHg 91%
    21:00 +18°C° 0.1 mm 1 mps 622 mmHg 92%
    22:00 +18°C° 0.1 mm 1 mps 622 mmHg 92%
    23:00 +18°C° 0 mm 1 mps 622 mmHg 92%

    Day after tomorrow, 28 January, Tuesday

    Time Temperature Precipitation Wind Pressure Humidity
    00:00 +18°C° 0 mm 1 mps 622 mmHg 93%
    01:00 +16°C° 0 mm 1 mps 621 mmHg 94%
    02:00 +16°C° 0 mm 1 mps 621 mmHg 94%
    03:00 +16°C° 0 mm 1 mps 621 mmHg 95%
    04:00 +16°C° 0 mm 1 mps 621 mmHg 96%
    05:00 +16°C° 0 mm 1 mps 621 mmHg 95%
    06:00 +18°C° 0 mm 1 mps 622 mmHg 94%
    07:00 +19°C° 0 mm 1 mps 622 mmHg 93%
    08:00 +20°C° 0 mm 2 mps 623 mmHg 83%
    09:00 +22°C° 0 mm 3 mps 623 mmHg 74%
    10:00 +25°C° 0 mm 4 mps 624 mmHg 65%
    11:00 +25°C° 0.1 mm 4 mps 623 mmHg 64%
    12:00 +25°C° 0.1 mm 4 mps 623 mmHg 64%
    13:00 +26°C° 0.1 mm 4 mps 622 mmHg 63%
    14:00 +25°C° 0.5 mm 4 mps 622 mmHg 66%
    15:00 +25°C° 0.5 mm 3 mps 621 mmHg 70%
    16:00 +24°C° 0.5 mm 3 mps 621 mmHg 73%
    17:00 +22°C° 0.7 mm 3 mps 621 mmHg 79%
    18:00 +20°C° 0.7 mm 2 mps 621 mmHg 85%
    19:00 +18°C° 0.7 mm 2 mps 620 mmHg 92%
    20:00 +19°C° 0 mm 1 mps 621 mmHg 92%
    21:00 +18°C° 0 mm 1 mps 621 mmHg 92%
    22:00 +16°C° 0 mm 0 mps 621 mmHg 93%
    23:00 +15°C° 0.1 mm 0 mps 621 mmHg 94%

    29 January, Wednesday

    Time Temperature Precipitation Wind Pressure Humidity
    00:00 +16°C° 0.1 mm 1 mps 621 mmHg 95%
    01:00 +16°C° 0.1 mm 1 mps 621 mmHg 96%
    02:00 +16°C° 0.1 mm 1 mps 621 mmHg 97%
    03:00 +16°C° 0.1 mm 1 mps 620 mmHg 97%
    04:00 +16°C° 0.1 mm 1 mps 620 mmHg 98%
    05:00 +16°C° 0.3 mm 1 mps 621 mmHg 97%
    06:00 +18°C° 0.3 mm 1 mps 621 mmHg 97%
    07:00 +18°C° 0.3 mm 1 mps 622 mmHg 97%
    08:00 +17°C° 0 mm 2 mps 622 mmHg 96%
    09:00 +18°C° 0 mm 2 mps 622 mmHg 95%
    10:00 +18°C° 0 mm 2 mps 622 mmHg 94%
    11:00 +20°C° 0 mm 2 mps 622 mmHg 88%
    12:00 +21°C° 0 mm 2 mps 622 mmHg 81%
    13:00 +24°C° 0 mm 1 mps 622 mmHg 75%
    14:00 +24°C° 0.7 mm 2 mps 621 mmHg 76%
    15:00 +24°C° 0.7 mm 2 mps 621 mmHg 78%
    16:00 +24°C° 0.7 mm 2 mps 621 mmHg 80%
    17:00 +21°C° 1.3 mm 2 mps 621 mmHg 84%
    18:00 +20°C° 1.3 mm 2 mps 621 mmHg 89%
    19:00 +18°C° 1.3 mm 2 mps 621 mmHg 94%
    20:00 +18°C° 1.9 mm 2 mps 621 mmHg 95%
    21:00 +18°C° 1.9 mm 2 mps 622 mmHg 95%
    22:00 +17°C° 1.9 mm 2 mps 622 mmHg 96%
    23:00 +17°C° 0.9 mm 2 mps 622 mmHg 96%

    30 January, Thursday

    Time Temperature Precipitation Wind Pressure Humidity
    00:00 +17°C° 0.9 mm 2 mps 622 mmHg 97%
    01:00 +17°C° 0.9 mm 2 mps 622 mmHg 97%
    02:00 +17°C° 0.6 mm 2 mps 621 mmHg 97%
    03:00 +17°C° 0.6 mm 2 mps 621 mmHg 97%
    04:00 +16°C° 0.6 mm 2 mps 621 mmHg 98%
    05:00 +17°C° 0.2 mm 2 mps 621 mmHg 97%
    06:00 +17°C° 0.2 mm 2 mps 622 mmHg 96%
    07:00 +17°C° 0.2 mm 2 mps 622 mmHg 96%
    08:00 +20°C° 0.1 mm 1 mps 623 mmHg 90%
    09:00 +21°C° 0.1 mm 1 mps 624 mmHg 85%
    10:00 +23°C° 0.1 mm 1 mps 624 mmHg 80%
    11:00 +23°C° 1.8 mm 1 mps 624 mmHg 80%
    12:00 +24°C° 1.8 mm 1 mps 623 mmHg 80%
    13:00 +24°C° 1.8 mm 1 mps 623 mmHg 81%
    14:00 +24°C° 1.5 mm 2 mps 622 mmHg 82%
    15:00 +23°C° 1.5 mm 2 mps 622 mmHg 83%
    16:00 +22°C° 1.5 mm 3 mps 621 mmHg 84%
    17:00 +21°C° 1.3 mm 3 mps 621 mmHg 87%
    18:00 +20°C° 1.3 mm 3 mps 621 mmHg 89%
    19:00 +18°C° 1.3 mm 3 mps 621 mmHg 92%
    20:00 +18°C° 0.2 mm 3 mps 622 mmHg 92%
    21:00 +17°C° 0.2 mm 3 mps 622 mmHg 92%
    22:00 +16°C° 0.2 mm 3 mps 622 mmHg 92%
    23:00 +16°C° 0 mm 3 mps 622 mmHg 91%

    31 January, Friday

    Time Temperature Precipitation Wind Pressure Humidity
    00:00 +14°C° 0 mm 3 mps 622 mmHg 91%
    01:00 +14°C° 0 mm 3 mps 621 mmHg 90%
    02:00 +14°C° 0 mm 3 mps 621 mmHg 91%
    03:00 +14°C° 0 mm 2 mps 621 mmHg 92%
    04:00 +14°C° 0 mm 2 mps 621 mmHg 92%
    05:00 +15°C° 0 mm 2 mps 621 mmHg 92%
    06:00 +15°C° 0 mm 2 mps 622 mmHg 92%
    07:00 +16°C° 0 mm 2 mps 622 mmHg 93%
    08:00 +18°C° 0 mm 2 mps 623 mmHg 86%
    09:00 +20°C° 0 mm 2 mps 624 mmHg 80%
    10:00 +23°C° 0 mm 2 mps 625 mmHg 74%
    11:00 +24°C° 1.1 mm 2 mps 624 mmHg 75%
    12:00 +24°C° 1.1 mm 2 mps 624 mmHg 76%
    13:00 +25°C° 1.1 mm 1 mps 623 mmHg 77%
    14:00 +24°C° 1.7 mm 2 mps 622 mmHg 79%
    15:00 +24°C° 1.7 mm 2 mps 622 mmHg 80%
    16:00 +23°C° 1.7 mm 2 mps 621 mmHg 81%
    17:00 +21°C° 1.4 mm 2 mps 621 mmHg 85%
    18:00 +20°C° 1.4 mm 2 mps 621 mmHg 88%
    19:00 +19°C° 1.4 mm 2 mps 621 mmHg 92%
    20:00 +18°C° 0.4 mm 2 mps 621 mmHg 92%
    21:00 +18°C° 0.4 mm 2 mps 622 mmHg 92%
    22:00 +18°C° 0.4 mm 2 mps 622 mmHg 93%
    23:00 +17°C° 0 mm 2 mps 622 mmHg 93%
    Show more